Location: Niagara
(43.2500°N, 79.0670°W)
Time: 09:12:13
(UTC-05:00)

Envisat - Pass Details

Date: 12 October 2017
Orbit: 764 x 766 km, 98.2° (Epoch: 14 December)

Event Time Altitude Azimuth Distance (km) Brightness Sun altitude
Exits shadow 21:34:03 45° 283° (WNW) 1,033 3.9 -32.4°
Drops below altitude 10° 21:38:23 10° 335° (NNW) 2,314 6.0 -33.1°
Sets 21:40:48 0° 342° (NNW) 3,245 6.8 -33.5°
